Location: �clusier
(49.9361°N, 2.7869°E)
Time: 20:32:08
(UTC+00:00)

Cosmos 1452 Rocket - Pass Details

Date: 31 October 2021
Orbit: 767 x 775 km, 74.1° (Epoch: 04 December)

Event Time Altitude Azimuth Distance (km) Brightness Sun altitude
Rises 17:49:37 0° 151° (SSE) 3,236 6.5 -13.7°
Reaches altitude 10° 17:52:51 10° 131° (SE) 2,317 5.6 -14.2°
Enters shadow 17:53:11 11° 128° (SE) 2,242 5.5 -14.2°
